| time (UTC) | temp F | wind direction | speed MPH | gust MPH | rain 1hr in | rain 24hr in | rain mn in | humidity % | barometer mb |
| 20260508012823 | 47 | 129 | 5.0 | 11.0 | 0.00 | 0.01 | 0.00 | 44 | 1013.6 |
| 20260508011319 | 47 | 153 | 3.0 | 10.0 | 0.00 | 0.01 | 0.00 | 44 | 1013.6 |
| 20260508005815 | 48 | 152 | 7.0 | 10.0 | 0.00 | 0.01 | 0.00 | 44 | 1013.7 |
| 20260508004309 | 48 | 150 | 6.0 | 13.0 | 0.00 | 0.01 | 0.00 | 45 | 1013.8 |
| 20260508001259 | 48 | 143 | 5.0 | 16.0 | 0.00 | 0.01 | 0.00 | 48 | 1014.2 |
| 20260507235755 | 48 | 129 | 2.0 | 13.0 | 0.00 | 0.01 | 0.00 | 49 | 1014.2 |
| 20260507234251 | 48 | 149 | 2.0 | 11.0 | 0.00 | 0.01 | 0.00 | 48 | 1014.3 |
| 20260507232745 | 48 | 143 | 3.0 | 9.0 | 0.00 | 0.01 | 0.00 | 47 | 1014.3 |
| 20260507231239 | 48 | 160 | 1.0 | 10.0 | 0.00 | 0.01 | 0.00 | 46 | 1014.3 |
| 20260507224228 | 48 | 235 | 3.0 | 12.0 | 0.00 | 0.01 | 0.00 | 47 | 1014.5 |
| 20260507222722 | 48 | 224 | 4.0 | 11.0 | 0.00 | 0.01 | 0.00 | 47 | 1014.6 |
| 20260507221219 | 48 | 191 | 1.0 | 13.0 | 0.00 | 0.01 | 0.00 | 47 | 1014.6 |
| 20260507215714 | 48 | 218 | 4.0 | 10.0 | 0.00 | 0.01 | 0.00 | 46 | 1014.7 |
| 20260507214211 | 47 | 200 | 4.0 | 11.0 | 0.00 | 0.01 | 0.00 | 46 | 1014.7 |
| 20260507212706 | 48 | 0 | 0.0 | 3.0 | 0.00 | 0.01 | 0.00 | 45 | 1014.8 |
| 20260507211202 | 47 | 249 | 2.0 | 9.0 | 0.00 | 0.01 | 0.00 | 47 | 1014.8 |
| 20260507205658 | 47 | 293 | 4.0 | 7.0 | 0.00 | 0.01 | 0.00 | 48 | 1015.1 |
| 20260507204152 | 47 | 282 | 6.0 | 11.0 | 0.00 | 0.01 | 0.00 | 48 | 1015.1 |
| 20260507202646 | 46 | 0 | 0.0 | 3.0 | 0.00 | 0.01 | 0.00 | 52 | 1015.1 |
| 20260507201142 | 46 | 0 | 0.0 | 1.0 | 0.00 | 0.01 | 0.00 | 48 | 1015.1 |
| 20260507195638 | 45 | 0 | 0.0 | 4.0 | 0.00 | 0.01 | 0.00 | 52 | 1015.2 |
| 20260507194134 | 45 | 0 | 0.0 | 0.0 | 0.00 | 0.01 | 0.00 | 59 | 1015.3 |
| 20260507192630 | 44 | 360 | 1.0 | 3.0 | 0.00 | 0.01 | 0.00 | 62 | 1015.3 |
| 20260507191126 | 44 | 0 | 0.0 | 5.0 | 0.00 | 0.01 | 0.00 | 64 | 1015.3 |
| 20260507185622 | 43 | 0 | 0.0 | 2.0 | 0.00 | 0.01 | 0.00 | 63 | 1015.5 |
| 20260507184118 | 42 | 0 | 0.0 | 1.0 | 0.00 | 0.01 | 0.00 | 68 | 1015.6 |
| 20260507182614 | 42 | 0 | 0.0 | 2.0 | 0.00 | 0.01 | 0.00 | 73 | 1015.7 |
| 20260507181110 | 42 | 0 | 0.0 | 1.0 | 0.00 | 0.01 | 0.00 | 74 | 1015.6 |
| 20260507175606 | 41 | 0 | 0.0 | 0.0 | 0.00 | 0.01 | 0.00 | 76 | 1015.7 |
| 20260507174102 | 40 | 0 | 0.0 | 1.0 | 0.00 | 0.01 | 0.00 | 83 | 1015.8 |
| 20260507172556 | 40 | 0 | 0.0 | 0.0 | 0.00 | 0.01 | 0.00 | 83 | 1015.8 |
| 20260507171052 | 40 | 0 | 0.0 | 0.0 | 0.00 | 0.01 | 0.00 | 82 | 1015.8 |
| 20260507165548 | 39 | 0 | 0.0 | 3.0 | 0.00 | 0.01 | 0.00 | 83 | 1015.8 |
| 20260507164045 | 38 | 0 | 0.0 | 0.0 | 0.00 | 0.01 | 0.00 | 82 | 1015.8 |
| 20260507162540 | 38 | 0 | 0.0 | 0.0 | 0.00 | 0.01 | 0.00 | 87 | 1015.9 |
| 20260507161036 | 37 | 0 | 0.0 | 0.0 | 0.00 | 0.01 | 0.00 | 92 | 1015.8 |
| 20260507155532 | 37 | 0 | 0.0 | 0.0 | 0.00 | 0.01 | 0.00 | 92 | 1015.8 |
| 20260507154028 | 36 | 0 | 0.0 | 0.0 | 0.00 | 0.01 | 0.00 | 92 | 1015.9 |
| 20260507152524 | 36 | 0 | 0.0 | 0.0 | 0.00 | 0.01 | 0.00 | 92 | 1015.9 |
| 20260507151020 | 36 | 0 | 0.0 | 0.0 | 0.00 | 0.01 | 0.00 | 92 | 1015.9 |
| 20260507145516 | 35 | 0 | 0.0 | 0.0 | 0.00 | 0.01 | 0.00 | 92 | 1015.9 |
| 20260507144012 | 35 | 0 | 0.0 | 0.0 | 0.00 | 0.01 | 0.00 | 92 | 1015.9 |
| 20260507142508 | 35 | 0 | 0.0 | 3.0 | 0.00 | 0.01 | 0.00 | 91 | 1015.8 |
| 20260507141004 | 35 | 0 | 0.0 | 7.0 | 0.00 | 0.01 | 0.00 | 93 | 1015.8 |
| 20260507135500 | 34 | 0 | 0.0 | 3.0 | 0.00 | 0.01 | 0.00 | 93 | 1015.8 |
| 20260507133956 | 34 | 0 | 0.0 | 0.0 | 0.00 | 0.01 | 0.00 | 92 | 1015.8 |
| 20260507132452 | 34 | 0 | 0.0 | 2.0 | 0.00 | 0.01 | 0.00 | 92 | 1015.7 |
| 20260507130948 | 34 | 0 | 0.0 | 2.0 | 0.00 | 0.01 | 0.00 | 92 | 1015.5 |
| 20260507125444 | 34 | 0 | 0.0 | 0.0 | 0.00 | 0.01 | 0.00 | 91 | 1015.4 |
| 20260507123940 | 35 | 0 | 0.0 | 0.0 | 0.00 | 0.01 | 0.00 | 91 | 1015.6 |
| 20260507122436 | 36 | 0 | 0.0 | 0.0 | 0.00 | 0.01 | 0.00 | 91 | 1015.6 |
| 20260507120932 | 36 | 0 | 0.0 | 0.0 | 0.00 | 0.01 | 0.00 | 91 | 1015.7 |
| 20260507115428 | 36 | 0 | 0.0 | 0.0 | 0.00 | 0.01 | 0.00 | 91 | 1015.6 |
| 20260507113924 | 37 | 0 | 0.0 | 1.0 | 0.00 | 0.01 | 0.00 | 90 | 1015.6 |
| 20260507112420 | 37 | 0 | 0.0 | 0.0 | 0.00 | 0.01 | 0.00 | 90 | 1015.6 |
| 20260507110915 | 37 | 0 | 0.0 | 0.0 | 0.00 | 0.01 | 0.00 | 90 | 1015.6 |
| 20260507105410 | 37 | 0 | 0.0 | 0.0 | 0.00 | 0.01 | 0.00 | 89 | 1015.6 |
| 20260507103906 | 37 | 0 | 0.0 | 0.0 | 0.00 | 0.01 | 0.00 | 88 | 1015.4 |
| 20260507102402 | 37 | 0 | 0.0 | 0.0 | 0.00 | 0.01 | 0.00 | 88 | 1015.3 |
| 20260507100858 | 37 | 0 | 0.0 | 0.0 | 0.00 | 0.01 | 0.00 | 87 | 1015.2 |
| 20260507095354 | 38 | 0 | 0.0 | 0.0 | 0.00 | 0.01 | 0.00 | 86 | 1015.2 |
| 20260507093850 | 38 | 0 | 0.0 | 0.0 | 0.00 | 0.01 | 0.00 | 85 | 1015.1 |
| 20260507092346 | 38 | 0 | 0.0 | 4.0 | 0.00 | 0.01 | 0.00 | 84 | 1015.0 |
| 20260507090840 | 39 | 305 | 1.0 | 9.0 | 0.00 | 0.01 | 0.00 | 84 | 1014.8 |
| 20260507083830 | 38 | 0 | 0.0 | 5.0 | 0.00 | 0.01 | 0.00 | 89 | 1014.7 |
| 20260507082326 | 38 | 331 | 1.0 | 3.0 | 0.00 | 0.01 | 0.01 | 89 | 1014.6 |
| 20260507080822 | 38 | 0 | 0.0 | 3.0 | 0.00 | 0.01 | 0.01 | 90 | 1014.5 |
| 20260507075318 | 38 | 0 | 0.0 | 0.0 | 0.00 | 0.01 | 0.01 | 90 | 1014.4 |
| 20260507073814 | 39 | 0 | 0.0 | 0.0 | 0.00 | 0.01 | 0.01 | 90 | 1014.3 |
| 20260507072310 | 39 | 0 | 0.0 | 0.0 | 0.00 | 0.01 | 0.01 | 89 | 1014.1 |
| 20260507070806 | 39 | 0 | 0.0 | 0.0 | 0.00 | 0.01 | 0.01 | 89 | 1014.1 |
| 20260507065305 | 39 | 0 | 0.0 | 0.0 | 0.00 | 0.01 | 0.01 | 88 | 1014.0 |
| 20260507063758 | 39 | 0 | 0.0 | 7.0 | 0.00 | 0.01 | 0.01 | 89 | 1013.8 |
| 20260507062254 | 40 | 0 | 0.0 | 0.0 | 0.00 | 0.01 | 0.01 | 89 | 1013.6 |
| 20260507060750 | 40 | 0 | 0.0 | 0.0 | 0.00 | 0.01 | 0.01 | 88 | 1013.5 |
| 20260507055246 | 40 | 0 | 0.0 | 0.0 | 0.00 | 0.01 | 0.01 | 88 | 1013.4 |
| 20260507052236 | 40 | 322 | 3.0 | 6.0 | 0.01 | 0.01 | 0.01 | 85 | 1013.2 |
| 20260507050730 | 41 | 333 | 1.0 | 11.0 | 0.01 | 0.01 | 0.01 | 86 | 1013.2 |
| 20260507045226 | 41 | 351 | 4.0 | 11.0 | 0.01 | 0.01 | 0.01 | 87 | 1013.1 |
| 20260507043722 | 42 | 334 | 3.0 | 11.0 | 0.01 | 0.01 | 0.01 | 84 | 1013.1 |
| 20260507042218 | 43 | 0 | 0.0 | 7.0 | 0.00 | 0.00 | 0.00 | 78 | 1013.0 |
| 20260507040714 | 43 | 316 | 5.0 | 9.0 | 0.00 | 0.00 | 0.00 | 76 | 1012.6 |
| 20260507035210 | 44 | 312 | 1.0 | 7.0 | 0.00 | 0.00 | 0.00 | 76 | 1012.5 |
| 20260507033706 | 44 | 300 | 1.0 | 4.0 | 0.00 | 0.00 | 0.00 | 76 | 1012.4 |
| 20260507032202 | 44 | 0 | 0.0 | 7.0 | 0.00 | 0.00 | 0.00 | 74 | 1012.4 |
| 20260507030658 | 44 | 0 | 0.0 | 4.0 | 0.00 | 0.00 | 0.00 | 73 | 1012.3 |
| 20260507025154 | 45 | 331 | 3.0 | 7.0 | 0.00 | 0.00 | 0.00 | 72 | 1012.2 |
| 20260507022144 | 46 | 0 | 0.0 | 6.0 | 0.00 | 0.00 | 0.00 | 70 | 1012.0 |
| 20260507020640 | 45 | 326 | 4.0 | 11.0 | 0.00 | 0.00 | 0.00 | 70 | 1012.0 |
| 20260507013630 | 46 | 333 | 3.0 | 10.0 | 0.00 | 0.00 | 0.00 | 69 | 1011.9 |